Tracking 18796 objects as of 20-September-2017
HD Live streaming from Space Station
objects crossing your sky now

FLOCK 2K 08

Track FLOCK 2K 08 now!
10-day predictions
FLOCK 2K 08 is classified as:


NORAD ID: 42863
Int'l Code: 2017-042AQ
Perigee: 464.2 km
Apogee: 481.4 km
Inclination: 97.0 °
Period: 93.9 minutes
Semi major axis: 6843 km
RCS: Unknown
Launch date: July 14, 2017
Source: United States (US)
Launch site: TYURATAM MISSILE AND SPACE COMPLEX (TTMTR)
aabbcc
Your satellite tracking list
Your tracking list is empty





NASA's NSSDC Master Catalog

Two Line Element Set (TLE):
1 42863U 17042AQ  17262.70862726 +.00007984 +00000-0 +24897-3 0  9994
2 42863 096.9970 168.1019 0012596 019.3607 340.8112 15.33402637010138
Source of the keplerian elements: AFSPC